Regional Weather Roundup
Issued by NWS

Home | Current Version | Previous Version | Text Only | Print | Product List | Glossary Off
Versions: 1 2 3 4 5 6 7 8 9 10 11 12 13 14 15 16 17 18 19 20 21 22 23 24 25 26 27 28 29 30 31 32 33 34 35 36 37 38 39 40 41 42 43 44 45 46 47 48 49 50

000
ASUS43 KIND 271109
RWRIN

WEATHER ROUNDUP FOR INDIANA
NATIONAL WEATHER SERVICE INDIANAPOLIS IN
700 AM EDT FRI MAY 27 2016

NOTE: "FAIR" INDICATES FEW OR NO CLOUDS BELOW 12,000 FEET WITH NO
SIGNIFICANT WEATHER AND/OR OBSTRUCTIONS TO VISIBILITY.

* - STATION DOES NOT REPORT WEATHER SUCH AS PRECIPITATION OR FOG.

+ - STATION NOT QUALITY CONTROLLED BY THE NATIONAL WEATHER SERVICE.
    USE DATA WITH CAUTION...ESPECIALLY DEWPOINT AND RELATIVE
    HUMIDITY OBSERVATIONS.

INZ001>003-010>013-019-020-271200-
NORTHWEST INDIANA

CITY           SKY/WX    TMP DP  RH WIND       PRES   REMARKS
GARY /AIRPORT/ MOCLDY    68  68 100 S5        29.91F
KNOX *+        CLOUDY    64  59  82 S7        29.94F
LA PORTE +     CLOUDY    66  66 100 CALM      29.94F FOG
MICHIGAN CITY+ MOCLDY    64  64 100 CALM      29.93F
MONTICELLO +   MOCLDY    66  60  82 S7        29.96R
RENSSELAER +   PTCLDY    64  63  94 S8        29.94S FOG
VALPARAISO     PTCLDY    65  62  90 SE5       29.93F

$$

LMZ046-743>745-271200-
SOUTHERN LAKE MICHIGAN

STATION/POSITION TIME  TEMP    WIND        PRES    WAVE
                       AIR SEA DIR/SP/G            HT
                 (UTC) (F)     (DEG/KT/KT) (MB)    (FT)
BURNS HARBOR     1000   67     180/  7/ 15 1013.5S
MICHIGAN CITY    1000   67     130/ 11/ 13   N/A
5NW MICH CITY    1100   63 58  180/  6/  8   N/A     1

$$

INZ004-005-014>016-021>024-271200-
NORTH CENTRAL INDIANA

CITY           SKY/WX    TMP DP  RH WIND       PRES   REMARKS
ELKHART        CLOUDY    64  64 100 CALM      29.96
GOSHEN         CLOUDY    66  61  84 SE5       29.96S
LOGANSPORT +   PTCLDY    64  61  88 S7        29.98R
PERU/GRISSOM   PTCLDY    65  63  93 S7        29.97R
ROCHESTER +    CLOUDY    68  64  88 S5        29.97R
SOUTH BEND     CLOUDY    64  62  93 S6        29.95S
WARSAW +       MOCLDY    64  61  88 CALM      29.97S

$$

INZ006>009-017-018-025>027-271200-
NORTHEAST INDIANA

CITY           SKY/WX    TMP DP  RH WIND       PRES   REMARKS
ANGOLA *+        N/A     61  52  72 CALM      29.98R
AUBURN +       CLOUDY    63  59  88 CALM      30.00R
FORT WAYNE     CLOUDY    64  61  90 S6        30.00R
HUNTINGTON +   CLOUDY   N/A N/A N/A S6        29.99R

$$

INZ028-029-035-036-043>045-051>053-271200-
WEST CENTRAL INDIANA

CITY           SKY/WX    TMP DP  RH WIND       PRES   REMARKS
CRAWFORDSVL +  CLOUDY    63  63 100 S9        29.98S
GREENCASTLE +  CLOUDY    63  63 100 S3        30.00S
LAFAYETTE      CLOUDY    65  62  90 S6        29.96R
TERRE HAUTE    CLOUDY    66  63  90 S5        29.98R

$$

INZ030>032-037>040-046>048-054>057-064-065-271200-
CENTRAL INDIANA

CITY           SKY/WX    TMP DP  RH WIND       PRES   REMARKS
CP ATTERBURY + CLOUDY    63  61  94 CALM      30.01S FOG
COLUMBUS       PTCLDY    64  64 100 S6        30.02  FOG
FISHERS *+     CLOUDY    64  64 100 S3        30.00S
FRANKFORT +      N/A     65  65 100 CALM      30.01R
GREENWOOD *+   CLOUDY    64  64 100 S6        30.02R
INDIANAPOLIS   CLOUDY    65  63  93 S7        29.98R
-EAGLE CREEK   MOCLDY    66  62  87 VRB6      29.99R
KOKOMO *+      CLOUDY    64  59  82 S8        29.98S
MARION +       MOCLDY    63  61  93 S8        30.01R
SHELBYVILLE    MOCLDY    66  63  90 S8        30.01R
ZIONSVILLE +   CLOUDY    64  62  92 S3        30.00S

$$

INZ033-034-041-042-049-050-058-059-271200-
EAST CENTRAL INDIANA

CITY           SKY/WX    TMP DP  RH WIND       PRES   REMARKS
MUNCIE         CLOUDY    65  61  87 SW7       30.01R

$$

INZ060-061-067>069-081>083-085>088-271200-
SOUTHWEST INDIANA

CITY           SKY/WX    TMP DP  RH WIND       PRES   REMARKS
EVANSVILLE     MOCLDY    66  63  90 SE6       29.98R
HUNTINGBURG *+ CLOUDY    66  63  88 SE8       29.98F
WASHINGTON +   CLOUDY    64  64 100 E3        29.97F

$$

INZ062-063-066-070>080-084-089>092-271200-
SOUTH CENTRAL AND SOUTHEAST INDIANA

CITY           SKY/WX    TMP DP  RH WIND       PRES   REMARKS
BEDFORD +      CLOUDY    64  64 100 SE3       30.00S
BLOOMINGTON    CLOUDY    64  62  93 SE5       29.99S
MADISON *+     CLEAR     61  61 100 CALM      30.06R
NORTH VERNON + PTCLDY   N/A N/A N/A CALM      30.04R
SEYMOUR +      MOCLDY    66  64  94 CALM      30.02R FOG

$$





USA.gov is the U.S. government's official web portal to all federal, state and local government web resources and services.